Time,TemperatureF,DewpointF,PressureIn,WindDirection,WindDirectionDegrees,WindSpeedMPH,WindSpeedGustMPH,Humidity,HourlyPrecipIn,Conditions,Clouds,dailyrainin,SoftwareType,DateUTC
2014-12-17 00:13:00,32.0,-99.9,-100.00,North,-999,-999.0,-999.0,-999,0.04,,,0.04,,2014-12-17 05:13:00,
2014-12-17 00:23:00,32.0,-99.9,-100.00,North,-999,-999.0,-999.0,-999,0.04,,,0.04,,2014-12-17 05:23:00,
2014-12-17 00:30:00,32.0,-99.9,-100.00,North,-999,-999.0,-999.0,-999,0.05,,,0.09,,2014-12-17 05:30:00,
2014-12-17 01:13:00,32.0,-99.9,-100.00,North,-999,-999.0,-999.0,-999,0.05,,,0.09,,2014-12-17 06:13:00,
2014-12-17 01:22:00,32.0,-99.9,-100.00,North,-999,-999.0,-999.0,-999,0.05,,,0.09,,2014-12-17 06:22:00,
2014-12-17 01:30:00,32.0,-99.9,-100.00,North,-999,-999.0,-999.0,-999,0.01,,,0.10,,2014-12-17 06:30:00,
2014-12-17 02:12:00,32.0,-99.9,-100.00,North,-999,-999.0,-999.0,-999,0.01,,,0.10,,2014-12-17 07:12:00,
2014-12-17 02:23:00,32.0,-99.9,-100.00,North,-999,-999.0,-999.0,-999,0.01,,,0.10,,2014-12-17 07:23:00,
2014-12-17 03:22:00,32.0,-99.9,-100.00,North,-999,-999.0,-999.0,-999,0.02,,,0.12,,2014-12-17 08:22:00,
2014-12-17 03:30:00,33.0,-99.9,-100.00,North,-999,-999.0,-999.0,-999,0.04,,,0.15,,2014-12-17 08:30:00,
2014-12-17 03:32:00,32.0,-99.9,-100.00,North,-999,-999.0,-999.0,-999,0.02,,,0.12,,2014-12-17 08:32:00,
2014-12-17 03:42:00,32.0,-99.9,-100.00,North,-999,-999.0,-999.0,-999,0.02,,,0.12,,2014-12-17 08:42:00,
2014-12-17 04:12:00,33.0,-99.9,-100.00,North,-999,-999.0,-999.0,-999,0.04,,,0.15,,2014-12-17 09:12:00,
2014-12-17 04:22:00,33.0,-99.9,-100.00,North,-999,-999.0,-999.0,-999,0.04,,,0.15,,2014-12-17 09:22:00,
2014-12-17 04:30:00,33.0,-99.9,-100.00,North,-999,-999.0,-999.0,-999,0.13,,,0.28,,2014-12-17 09:30:00,
2014-12-17 05:13:00,33.0,-99.9,-100.00,North,-999,-999.0,-999.0,-999,0.13,,,0.28,,2014-12-17 10:13:00,
2014-12-17 05:23:00,33.0,-99.9,-100.00,North,-999,-999.0,-999.0,-999,0.13,,,0.28,,2014-12-17 10:23:00,
2014-12-17 05:30:00,34.0,-99.9,-100.00,North,-999,-999.0,-999.0,-999,0.08,,,0.36,,2014-12-17 10:30:00,
2014-12-17 06:13:00,34.0,-99.9,-100.00,North,-999,-999.0,-999.0,-999,0.08,,,0.36,,2014-12-17 11:13:00,
2014-12-17 06:22:00,34.0,-99.9,-100.00,North,-999,-999.0,-999.0,-999,0.08,,,0.36,,2014-12-17 11:22:00,
2014-12-17 06:30:00,34.0,-99.9,-100.00,North,-999,-999.0,-999.0,-999,0.05,,,0.41,,2014-12-17 11:30:00,
2014-12-17 07:12:00,34.0,-99.9,-100.00,North,-999,-999.0,-999.0,-999,0.05,,,0.41,,2014-12-17 12:12:00,
2014-12-17 07:22:00,34.0,-99.9,-100.00,North,-999,-999.0,-999.0,-999,0.05,,,0.41,,2014-12-17 12:22:00,
2014-12-17 07:30:00,34.0,-99.9,-100.00,North,-999,-999.0,-999.0,-999,0.01,,,0.42,,2014-12-17 12:30:00,
2014-12-17 08:12:00,34.0,-99.9,-100.00,North,-999,-999.0,-999.0,-999,0.01,,,0.42,,2014-12-17 13:12:00,
2014-12-17 08:22:00,34.0,-99.9,-100.00,North,-999,-999.0,-999.0,-999,0.01,,,0.42,,2014-12-17 13:22:00,
2014-12-17 09:22:00,34.0,-99.9,-100.00,North,-999,-999.0,-999.0,-999,0.00,,,0.43,,2014-12-17 14:22:00,
2014-12-17 09:30:00,34.0,-99.9,-100.00,North,-999,-999.0,-999.0,-999,0.03,,,0.46,,2014-12-17 14:30:00,
2014-12-17 09:32:00,34.0,-99.9,-100.00,North,-999,-999.0,-999.0,-999,0.00,,,0.43,,2014-12-17 14:32:00,
2014-12-17 09:42:00,34.0,-99.9,-100.00,North,-999,-999.0,-999.0,-999,0.00,,,0.43,,2014-12-17 14:42:00,
2014-12-17 10:12:00,34.0,-99.9,-100.00,North,-999,-999.0,-999.0,-999,0.03,,,0.46,,2014-12-17 15:12:00,
2014-12-17 10:23:00,34.0,-99.9,-100.00,North,-999,-999.0,-999.0,-999,0.03,,,0.46,,2014-12-17 15:23:00,
2014-12-17 10:30:00,38.0,-99.9,-100.00,North,-999,-999.0,-999.0,-999,0.05,,,0.51,,2014-12-17 15:30:00,
2014-12-17 11:13:00,38.0,-99.9,-100.00,North,-999,-999.0,-999.0,-999,0.05,,,0.51,,2014-12-17 16:13:00,
2014-12-17 11:23:00,38.0,-99.9,-100.00,North,-999,-999.0,-999.0,-999,0.05,,,0.51,,2014-12-17 16:23:00,
2014-12-17 11:30:00,39.0,-99.9,-100.00,North,-999,-999.0,-999.0,-999,0.00,,,0.51,,2014-12-17 16:30:00,
2014-12-17 12:13:00,39.0,-99.9,-100.00,North,-999,-999.0,-999.0,-999,0.00,,,0.51,,2014-12-17 17:13:00,
2014-12-17 12:23:00,39.0,-99.9,-100.00,North,-999,-999.0,-999.0,-999,0.00,,,0.51,,2014-12-17 17:23:00,
2014-12-17 12:30:00,41.0,-99.9,-100.00,North,-999,-999.0,-999.0,-999,0.00,,,0.51,,2014-12-17 17:30:00,
2014-12-17 13:13:00,41.0,-99.9,-100.00,North,-999,-999.0,-999.0,-999,0.00,,,0.51,,2014-12-17 18:13:00,
2014-12-17 13:22:00,41.0,-99.9,-100.00,North,-999,-999.0,-999.0,-999,0.00,,,0.51,,2014-12-17 18:22:00,
2014-12-17 13:30:00,41.0,-99.9,-100.00,North,-999,-999.0,-999.0,-999,0.00,,,0.51,,2014-12-17 18:30:00,
2014-12-17 14:12:00,41.0,-99.9,-100.00,North,-999,-999.0,-999.0,-999,0.00,,,0.51,,2014-12-17 19:12:00,
2014-12-17 14:22:00,41.0,-99.9,-100.00,North,-999,-999.0,-999.0,-999,0.00,,,0.51,,2014-12-17 19:22:00,
2014-12-17 15:22:00,40.0,-99.9,-100.00,North,-999,-999.0,-999.0,-999,0.00,,,0.51,,2014-12-17 20:22:00,
2014-12-17 15:30:00,40.0,-99.9,-100.00,North,-999,-999.0,-999.0,-999,0.00,,,0.51,,2014-12-17 20:30:00,
2014-12-17 15:32:00,40.0,-99.9,-100.00,North,-999,-999.0,-999.0,-999,0.00,,,0.51,,2014-12-17 20:32:00,
2014-12-17 15:42:00,40.0,-99.9,-100.00,North,-999,-999.0,-999.0,-999,0.00,,,0.51,,2014-12-17 20:42:00,
2014-12-17 16:12:00,40.0,-99.9,-100.00,North,-999,-999.0,-999.0,-999,0.00,,,0.51,,2014-12-17 21:12:00,
2014-12-17 16:22:00,40.0,-99.9,-100.00,North,-999,-999.0,-999.0,-999,0.00,,,0.51,,2014-12-17 21:22:00,
2014-12-17 16:30:00,39.0,-99.9,-100.00,North,-999,-999.0,-999.0,-999,0.00,,,0.51,,2014-12-17 21:30:00,
2014-12-17 17:13:00,39.0,-99.9,-100.00,North,-999,-999.0,-999.0,-999,0.00,,,0.51,,2014-12-17 22:13:00,
2014-12-17 17:24:00,39.0,-99.9,-100.00,North,-999,-999.0,-999.0,-999,0.00,,,0.51,,2014-12-17 22:24:00,
2014-12-17 17:30:00,38.0,-99.9,-100.00,North,-999,-999.0,-999.0,-999,0.00,,,0.51,,2014-12-17 22:30:00,
2014-12-17 18:12:00,38.0,-99.9,-100.00,North,-999,-999.0,-999.0,-999,0.00,,,0.51,,2014-12-17 23:12:00,
2014-12-17 18:22:00,38.0,-99.9,-100.00,North,-999,-999.0,-999.0,-999,0.00,,,0.51,,2014-12-17 23:22:00,
2014-12-17 18:30:00,39.0,-99.9,-100.00,North,-999,-999.0,-999.0,-999,0.00,,,0.51,,2014-12-17 23:30:00,
2014-12-17 19:12:00,39.0,-99.9,-100.00,North,-999,-999.0,-999.0,-999,0.00,,,0.51,,2014-12-18 00:12:00,
2014-12-17 19:22:00,39.0,-99.9,-100.00,North,-999,-999.0,-999.0,-999,0.00,,,0.51,,2014-12-18 00:22:00,
2014-12-17 19:30:00,38.0,-99.9,-100.00,North,-999,-999.0,-999.0,-999,0.00,,,0.51,,2014-12-18 00:30:00,
2014-12-17 20:12:00,38.0,-99.9,-100.00,North,-999,-999.0,-999.0,-999,0.00,,,0.51,,2014-12-18 01:12:00,
2014-12-17 20:22:00,38.0,-99.9,-100.00,North,-999,-999.0,-999.0,-999,0.00,,,0.51,,2014-12-18 01:22:00,